KE9LZ Weather Reports


Display with metric or nautical units.
time (UTC)temp
F
wind
direction
speed
MPH
gust
MPH
rain 1hr
in
rain 24hr
in
rain mn
in
humidity
%
barometer
mb
20260509151004 54 318 5.0 13.0 0.00 0.00 0.00 51 1006.8
20260509150003 54 16 4.0 14.0 0.00 0.00 0.00 51 1006.7
20260509145003 54 314 5.0 14.0 0.00 0.00 0.00 51 1006.5
20260509144003 53 245 5.0 10.0 0.00 0.00 0.00 51 1006.8
20260509143003 53 287 7.0 13.0 0.00 0.00 0.00 50 1006.6
20260509142003 53 295 5.0 9.0 0.00 0.00 0.00 50 1006.7
20260509140003 53 271 3.0 14.0 0.00 0.00 0.00 51 1006.5
20260509135003 53 277 2.0 16.0 0.00 0.00 0.00 51 1006.5
20260509134003 53 266 6.0 12.0 0.00 0.00 0.00 51 1006.1
20260509133004 53 354 3.0 8.0 0.00 0.00 0.00 53 1006.2
20260509132003 53 266 5.0 10.0 0.00 0.00 0.00 54 1005.9
20260509131003 52 249 3.0 6.0 0.00 0.00 0.00 54 1005.7
20260509130002 52 191 4.0 8.0 0.00 0.00 0.00 54 1005.5
20260509125003 52 222 3.0 6.0 0.00 0.00 0.00 54 1005.4
20260509123003 52 195 2.0 6.0 0.00 0.00 0.00 56 1005.0
20260509122003 52 191 3.0 5.0 0.00 0.00 0.00 56 1005.1
20260509121003 52 144 3.0 5.0 0.00 0.00 0.00 56 1004.4
20260509120003 52 79 3.0 5.0 0.00 0.00 0.00 56 1003.9
20260509115003 52 225 2.0 6.0 0.00 0.00 0.00 56 1004.2
20260509114003 52 240 2.0 8.0 0.00 0.00 0.00 56 1003.9
20260509113003 52 276 4.0 9.0 0.00 0.00 0.00 56 1003.8
20260509112003 52 180 2.0 6.0 0.00 0.00 0.00 58 1003.7
20260509111003 51 352 3.0 7.0 0.00 0.00 0.00 59 1003.3
20260509110003 51 18 2.0 6.0 0.00 0.00 0.00 64 1003.3
20260509105003 51 187 3.0 7.0 0.00 0.00 0.00 65 1003.1
20260509104003 51 146 3.0 10.0 0.00 0.00 0.00 68 1002.9
20260509103003 51 217 4.0 8.0 0.00 0.00 0.00 70 1002.7
20260509102003 51 173 4.0 6.0 0.00 0.00 0.00 72 1002.6
20260509101004 51 187 2.0 8.0 0.00 0.00 0.00 74 1002.7
20260509100003 51 180 3.0 8.0 0.00 0.00 0.00 73 1002.8
20260509095003 51 206 4.0 9.0 0.00 0.00 0.00 72 1002.9
20260509094003 51 193 5.0 8.0 0.00 0.00 0.00 72 1002.2
20260509092003 52 151 4.0 7.0 0.00 0.00 0.00 70 1002.4
20260509091003 52 185 4.0 6.0 0.00 0.00 0.00 69 1002.6
20260509085003 52 174 5.0 7.0 0.00 0.00 0.00 68 1002.6
20260509084003 51 158 2.0 5.0 0.00 0.00 0.00 68 1002.7
20260509083003 50 124 3.0 5.0 0.00 0.00 0.00 68 1002.7
20260509082003 50 110 3.0 3.0 0.00 0.00 0.00 68 1002.9
20260509081004 50 104 3.0 5.0 0.00 0.00 0.00 67 1003.0
20260509080003 51 119 3.0 6.0 0.00 0.00 0.00 66 1002.9
20260509075003 50 99 3.0 5.0 0.00 0.00 0.00 66 1003.1
20260509074004 51 117 2.0 5.0 0.00 0.00 0.00 65 1003.3
20260509072003 52 123 3.0 6.0 0.00 0.00 0.00 63 1003.5
20260509071003 52 138 3.0 6.0 0.00 0.00 0.00 62 1003.7
20260509063004 53 126 5.0 6.0 0.00 0.00 0.00 56 1004.1
20260509062003 54 140 5.0 7.0 0.00 0.00 0.00 55 1004.4
20260509061003 54 116 5.0 7.0 0.00 0.00 0.00 55 1004.5
20260509060003 54 108 4.0 7.0 0.00 0.00 0.00 54 1004.8
20260509055003 54 115 4.0 7.0 0.00 0.00 0.00 53 1005.1
20260509054003 55 114 4.0 8.0 0.00 0.00 0.00 51 1005.3
20260509053004 55 131 4.0 9.0 0.00 0.00 0.00 51 1005.2
20260509052003 55 88 3.0 14.0 0.00 0.00 0.00 51 1005.3
20260509051003 55 87 4.0 5.0 0.00 0.00 0.00 53 1005.4
20260509050003 55 54 2.0 6.0 0.00 0.00 0.00 51 1005.6
20260509045004 55 139 3.0 7.0 0.00 0.00 0.00 52 1005.6
20260509044003 54 112 4.0 6.0 0.00 0.00 0.00 56 1005.8
20260509043003 55 212 4.0 7.0 0.00 0.00 0.00 54 1005.7
20260509041003 55 61 3.0 5.0 0.00 0.00 0.00 50 1006.1
20260509040004 56 105 1.0 6.0 0.00 0.00 0.00 49 1006.4
20260509034004 54 199 2.0 6.0 0.00 0.00 0.00 47 1006.5
20260509033003 54 98 2.0 5.0 0.00 0.00 0.00 47 1006.6
20260509032003 54 119 3.0 5.0 0.00 0.00 0.00 47 1006.6
20260509031004 54 121 3.0 6.0 0.00 0.00 0.00 47 1006.5
20260509030004 54 134 3.0 6.0 0.00 0.00 0.00 46 1006.6
20260509025003 55 117 3.0 10.0 0.00 0.00 0.00 45 1006.7
20260509024003 56 123 6.0 9.0 0.00 0.00 0.00 44 1006.8
20260509023003 57 100 4.0 6.0 0.00 0.00 0.00 45 1006.7
20260509022003 58 115 3.0 7.0 0.00 0.00 0.00 43 1006.6
20260509021003 60 102 3.0 5.0 0.00 0.00 0.00 40 1006.7
20260509020003 62 115 3.0 5.0 0.00 0.00 0.00 36 1006.7
20260509015004 63 13 1.0 6.0 0.00 0.00 0.00 34 1007.1
20260509014004 64 199 3.0 16.0 0.00 0.00 0.00 32 1007.3
20260509012003 64 303 4.0 10.0 0.00 0.00 0.00 32 1007.1
20260509005004 63 296 2.0 6.0 0.00 0.00 0.00 33 1007.2
20260509004003 64 171 3.0 6.0 0.00 0.00 0.00 32 1007.1
20260509003003 64 171 3.0 10.0 0.00 0.00 0.00 30 1006.8
20260509002003 64 210 1.0 5.0 0.00 0.00 0.00 32 1007.0
20260509001003 64 151 3.0 6.0 0.00 0.00 0.00 31 1007.1
20260509000003 65 157 2.0 5.0 0.00 0.00 0.00 30 1007.1
20260508235003 65 155 3.0 6.0 0.00 0.00 0.00 29 1007.3
20260508234003 65 195 4.0 9.0 0.00 0.00 0.00 27 1007.3
20260508233003 66 217 1.0 6.0 0.00 0.00 0.00 29 1007.3
20260508232003 66 189 3.0 8.0 0.00 0.00 0.00 28 1007.4
20260508231003 66 204 4.0 9.0 0.00 0.00 0.00 27 1007.2
20260508225003 66 211 3.0 16.0 0.00 0.00 0.00 27 1007.5
20260508224004 67 197 5.0 12.0 0.00 0.00 0.00 26 1007.9
20260508223003 67 283 5.0 10.0 0.00 0.00 0.00 27 1008.1
20260508222004 66 234 6.0 13.0 0.00 0.00 0.00 27 1008.0
20260508220003 65 295 3.0 16.0 0.00 0.00 0.00 29 1008.4
20260508215003 65 322 5.0 13.0 0.00 0.00 0.00 29 1008.5
20260508213003 65 270 12.0 17.0 0.00 0.00 0.00 27 1008.4
20260508212003 66 284 6.0 14.0 0.00 0.00 0.00 27 1008.7
20260508211003 65 198 5.0 17.0 0.00 0.00 0.00 27 1008.7
20260508210003 65 218 4.0 10.0 0.00 0.00 0.00 27 1008.6
20260508205003 65 233 6.0 12.0 0.00 0.00 0.00 27 1008.9
20260508204003 65 281 8.0 18.0 0.00 0.00 0.00 26 1009.4
20260508203003 65 288 9.0 18.0 0.00 0.00 0.00 27 1009.4
20260508202003 65 235 8.0 16.0 0.00 0.00 0.00 27 1009.5
20260508200003 65 242 8.0 16.0 0.00 0.00 0.00 27 1009.8
20260508194003 65 232 7.0 14.0 0.00 0.00 0.00 28 1010.2
20260508193003 64 246 5.0 16.0 0.00 0.00 0.00 28 1010.2
20260508192003 65 270 9.0 18.0 0.00 0.00 0.00 28 1010.5
20260508191004 65 268 10.0 22.0 0.00 0.00 0.00 28 1010.6
20260508190003 66 295 11.0 18.0 0.00 0.00 0.00 27 1010.5
20260508185004 64 256 7.0 20.0 0.00 0.00 0.00 28 1010.8
20260508183003 64 169 5.0 12.0 0.00 0.00 0.00 30 1011.2
20260508182003 64 231 5.0 14.0 0.00 0.00 0.00 30 1011.5
20260508181003 64 227 7.0 16.0 0.00 0.00 0.00 30 1011.4
20260508180003 63 210 6.0 14.0 0.00 0.00 0.00 31 1011.5
20260508175003 63 272 7.0 14.0 0.00 0.00 0.00 31 1011.8
20260508174003 63 209 8.0 13.0 0.00 0.00 0.00 30 1012.1
20260508173003 62 203 7.0 16.0 0.00 0.00 0.00 30 1012.2
20260508172004 63 270 7.0 15.0 0.00 0.00 0.00 31 1012.4
20260508171003 62 290 10.0 17.0 0.00 0.00 0.00 31 1012.7
20260508170003 61 202 7.0 20.0 0.00 0.00 0.00 35 1012.7
20260508165004 62 234 6.0 17.0 0.00 0.00 0.00 34 1012.9
20260508163004 61 203 9.0 18.0 0.00 0.00 0.00 37 1013.4
20260508162004 61 197 11.0 16.0 0.00 0.00 0.00 37 1013.5
20260508161003 61 213 8.0 16.0 0.00 0.00 0.00 36 1013.4
20260508160004 61 225 7.0 14.0 0.00 0.00 0.00 36 1013.5
20260508154003 59 258 5.0 18.0 0.00 0.00 0.00 36 1013.8
20260508153004 59 240 9.0 16.0 0.00 0.00 0.00 37 1014.0
20260508152004 58 230 3.0 14.0 0.00 0.00 0.00 41 1014.0